IMORE ENBR-ENZV

Flight info

Callsign IMORE
Flight time 0h 30m
Altitude 17000
Route BEGOD
Aircraft C25C/M-SDE2E3FGHRWXY/LB1

Departure

Time 2026-04-17 09:17
Airport Bergen Airport, Flesland (ENBR)

Arrival

Time 2026-04-17 09:47
Airport Stavanger Airport, Sola (ENZV)
Time Latitude Longitude Altitude Speed Heading
2026-04-17 08:57 60.28406 5.22671 155 ft 0 kts 96°
2026-04-17 09:06 60.28406 5.22668 155 ft 2 kts 96°
2026-04-17 09:06 60.28407 5.22635 155 ft 2 kts 90°
2026-04-17 09:06 60.28405 5.22603 155 ft 2 kts 75°
2026-04-17 09:06 60.28395 5.22579 155 ft 2 kts 15°
2026-04-17 09:07 60.28389 5.22577 154 ft 0 kts
2026-04-17 09:07 60.28407 5.22572 155 ft 10 kts 349°
2026-04-17 09:07 60.28498 5.22539 158 ft 13 kts 349°
2026-04-17 09:08 60.28593 5.22505 161 ft 14 kts 351°
2026-04-17 09:08 60.28669 5.22474 164 ft 10 kts 323°
2026-04-17 09:08 60.28727 5.22351 162 ft 16 kts 343°
2026-04-17 09:08 60.28843 5.22305 164 ft 18 kts 349°
2026-04-17 09:09 60.28971 5.22260 166 ft 20 kts 351°
2026-04-17 09:09 60.29125 5.22211 166 ft 24 kts 350°
2026-04-17 09:09 60.29239 5.22172 161 ft 26 kts 350°
2026-04-17 09:09 60.29490 5.22088 150 ft 29 kts 351°
2026-04-17 09:10 60.29896 5.21951 147 ft 28 kts 351°
2026-04-17 09:10 60.30080 5.21891 154 ft 28 kts 350°
2026-04-17 09:10 60.30215 5.21847 160 ft 30 kts 350°
2026-04-17 09:11 60.30399 5.21786 169 ft 18 kts 350°
2026-04-17 09:11 60.30437 5.21671 169 ft 0 kts 262°
2026-04-17 09:15 60.30434 5.21624 169 ft 8 kts 261°
2026-04-17 09:16 60.30374 5.21483 166 ft 17 kts 186°
2026-04-17 09:16 60.30124 5.21554 156 ft 75 kts 171°
2026-04-17 09:16 60.29291 5.21844 252 ft 154 kts 171°
2026-04-17 09:16 60.28033 5.22169 354 ft 229 kts 171°
2026-04-17 09:17 60.26495 5.22688 2043 ft 208 kts 167°
2026-04-17 09:17 60.25120 5.23234 3687 ft 196 kts 170°
2026-04-17 09:17 60.23752 5.23693 4798 ft 200 kts 170°
2026-04-17 09:17 60.22371 5.24152 5923 ft 204 kts 171°
2026-04-17 09:18 60.20964 5.24623 6924 ft 210 kts 171°
2026-04-17 09:18 60.19505 5.25101 7913 ft 215 kts 172°
2026-04-17 09:18 60.18011 5.25611 8902 ft 220 kts 171°
2026-04-17 09:18 60.16461 5.26115 9902 ft 225 kts 172°
2026-04-17 09:19 60.14919 5.26640 10803 ft 230 kts 172°
2026-04-17 09:19 60.13333 5.27159 11751 ft 233 kts 171°
2026-04-17 09:19 60.11730 5.27698 12767 ft 235 kts 171°
2026-04-17 09:19 60.10095 5.28233 13765 ft 239 kts 172°
2026-04-17 09:20 60.08436 5.27972 14660 ft 244 kts 194°
2026-04-17 09:20 60.06785 5.27147 15537 ft 246 kts 190°
2026-04-17 09:20 60.05109 5.26347 16421 ft 249 kts 193°
2026-04-17 09:20 60.03410 5.25475 17178 ft 258 kts 192°
2026-04-17 09:21 60.01596 5.24558 17211 ft 275 kts 192°
2026-04-17 09:21 59.99706 5.23628 17218 ft 283 kts 192°
2026-04-17 09:21 59.97771 5.22651 17218 ft 290 kts 193°
2026-04-17 09:21 59.95785 5.21669 17219 ft 296 kts 192°
2026-04-17 09:22 59.93767 5.20655 17218 ft 300 kts 193°
2026-04-17 09:22 59.91719 5.19646 17219 ft 304 kts 192°
2026-04-17 09:22 59.89670 5.18621 17218 ft 308 kts 193°
2026-04-17 09:22 59.87578 5.17591 17217 ft 310 kts 192°
2026-04-17 09:23 59.85473 5.16542 17221 ft 312 kts 192°
2026-04-17 09:23 59.83353 5.15497 17219 ft 314 kts 192°
2026-04-17 09:23 59.81218 5.14441 17219 ft 316 kts 193°
2026-04-17 09:23 59.79064 5.13523 17216 ft 316 kts 184°
2026-04-17 09:24 59.76898 5.13819 17218 ft 316 kts 174°
2026-04-17 09:24 59.74697 5.14097 17207 ft 317 kts 177°
2026-04-17 09:24 59.72493 5.14440 17206 ft 318 kts 174°
2026-04-17 09:24 59.70281 5.14837 17207 ft 318 kts 175°
2026-04-17 09:25 59.68068 5.15204 17207 ft 319 kts 175°
2026-04-17 09:25 59.65878 5.15554 17137 ft 321 kts 175°
2026-04-17 09:25 59.63607 5.15923 16754 ft 331 kts 175°
2026-04-17 09:25 59.61292 5.16301 16312 ft 328 kts 175°
2026-04-17 09:26 59.59137 5.16665 15904 ft 302 kts 175°
2026-04-17 09:26 59.57119 5.16997 15512 ft 281 kts 175°
2026-04-17 09:26 59.55224 5.17307 15152 ft 264 kts 175°
2026-04-17 09:26 59.53442 5.17600 14810 ft 250 kts 175°
2026-04-17 09:27 59.51747 5.17882 14488 ft 238 kts 175°
2026-04-17 09:27 59.50156 5.18137 14189 ft 228 kts 175°
2026-04-17 09:27 59.48585 5.18402 13871 ft 220 kts 175°
2026-04-17 09:27 59.47088 5.18640 13573 ft 212 kts 175°
2026-04-17 09:28 59.45641 5.18883 13287 ft 206 kts 176°
2026-04-17 09:28 59.44229 5.19111 13034 ft 202 kts 175°
2026-04-17 09:28 59.42851 5.19334 12779 ft 199 kts 176°
2026-04-17 09:28 59.41463 5.19567 12517 ft 202 kts 175°
2026-04-17 09:29 59.40077 5.20208 12247 ft 210 kts 156°
2026-04-17 09:29 59.38824 5.21821 11854 ft 223 kts 146°
2026-04-17 09:29 59.37582 5.23733 11473 ft 229 kts 145°
2026-04-17 09:29 59.36359 5.25664 11154 ft 227 kts 145°
2026-04-17 09:30 59.35115 5.27572 10848 ft 225 kts 145°
2026-04-17 09:30 59.33883 5.29466 10550 ft 224 kts 146°
2026-04-17 09:30 59.32669 5.31318 10255 ft 222 kts 145°
2026-04-17 09:30 59.31456 5.33179 9948 ft 221 kts 146°
2026-04-17 09:31 59.30251 5.35027 9646 ft 219 kts 145°
2026-04-17 09:31 59.29052 5.36851 9354 ft 217 kts 146°
2026-04-17 09:31 59.27862 5.38680 9066 ft 215 kts 145°
2026-04-17 09:31 59.26693 5.40450 8784 ft 214 kts 145°
2026-04-17 09:32 59.25526 5.42242 8495 ft 213 kts 146°
2026-04-17 09:32 59.24350 5.43999 8213 ft 211 kts 148°
2026-04-17 09:32 59.23010 5.45011 8032 ft 202 kts 170°
2026-04-17 09:32 59.21644 5.45134 7992 ft 192 kts 189°
2026-04-17 09:33 59.20383 5.44540 7978 ft 185 kts 191°
2026-04-17 09:33 59.19123 5.44008 7978 ft 184 kts 192°
2026-04-17 09:33 59.17869 5.43413 7975 ft 183 kts 191°
2026-04-17 09:33 59.16698 5.42534 7976 ft 186 kts 212°
2026-04-17 09:34 59.15765 5.40777 7978 ft 190 kts 230°
2026-04-17 09:34 59.15260 5.38330 7977 ft 199 kts 253°
2026-04-17 09:34 59.15258 5.35583 7980 ft 206 kts 269°
2026-04-17 09:34 59.15332 5.32800 7981 ft 205 kts 266°
2026-04-17 09:35 59.15279 5.30027 7874 ft 203 kts 247°
2026-04-17 09:35 59.14806 5.27370 7693 ft 213 kts 249°
2026-04-17 09:35 59.14416 5.24546 7483 ft 223 kts 248°
2026-04-17 09:35 59.13957 5.21608 7250 ft 230 kts 248°
2026-04-17 09:36 59.13249 5.18858 7004 ft 227 kts 226°
2026-04-17 09:36 59.12254 5.16414 6760 ft 233 kts 231°
2026-04-17 09:36 59.11313 5.13826 6506 ft 235 kts 229°
2026-04-17 09:36 59.10282 5.11321 6255 ft 236 kts 221°
2026-04-17 09:37 59.08930 5.09642 5992 ft 233 kts 205°
2026-04-17 09:37 59.07556 5.07982 5707 ft 227 kts 207°
2026-04-17 09:37 59.06080 5.07408 5439 ft 214 kts 175°
2026-04-17 09:37 59.04674 5.08066 5204 ft 206 kts 153°
2026-04-17 09:38 59.03600 5.09832 4994 ft 199 kts 134°
2026-04-17 09:38 59.03010 5.12160 4806 ft 190 kts 113°
2026-04-17 09:38 59.02580 5.14506 4613 ft 181 kts 116°
2026-04-17 09:38 59.02161 5.16788 4418 ft 177 kts 114°
2026-04-17 09:39 59.01751 5.19024 4235 ft 174 kts 115°
2026-04-17 09:39 59.01357 5.21202 4055 ft 171 kts 115°
2026-04-17 09:39 59.00956 5.23370 3873 ft 169 kts 115°
2026-04-17 09:39 59.00564 5.25519 3692 ft 168 kts 116°
2026-04-17 09:40 59.00173 5.27658 3514 ft 167 kts 115°
2026-04-17 09:40 58.99786 5.29743 3334 ft 165 kts 115°
2026-04-17 09:40 58.99402 5.31846 3158 ft 165 kts 116°
2026-04-17 09:40 58.98753 5.33592 2989 ft 158 kts 141°
2026-04-17 09:41 58.97820 5.34672 2824 ft 157 kts 161°
2026-04-17 09:41 58.96731 5.34951 2659 ft 158 kts 173°
2026-04-17 09:41 58.95638 5.35111 2491 ft 157 kts 173°
2026-04-17 09:41 58.94544 5.35240 2324 ft 157 kts 172°
2026-04-17 09:42 58.93466 5.35395 2159 ft 157 kts 170°
2026-04-17 09:42 58.92475 5.36147 2020 ft 151 kts 145°
2026-04-17 09:42 58.91741 5.37528 2000 ft 145 kts 126°
2026-04-17 09:42 58.91360 5.39320 1948 ft 144 kts 111°
2026-04-17 09:43 58.91089 5.41120 1831 ft 135 kts 112°
2026-04-17 09:43 58.90845 5.42801 1714 ft 126 kts 112°
2026-04-17 09:43 58.90598 5.44413 1598 ft 123 kts 112°
2026-04-17 09:43 58.90361 5.45995 1498 ft 120 kts 114°
2026-04-17 09:44 58.90137 5.47521 1416 ft 118 kts 112°
2026-04-17 09:44 58.89906 5.49022 1275 ft 110 kts 113°
2026-04-17 09:44 58.89706 5.50373 1116 ft 100 kts 115°
2026-04-17 09:44 58.89518 5.51649 973 ft 97 kts 114°
2026-04-17 09:45 58.89322 5.52893 836 ft 98 kts 111°
2026-04-17 09:45 58.89136 5.54138 704 ft 97 kts 115°
2026-04-17 09:45 58.88946 5.55422 588 ft 101 kts 113°
2026-04-17 09:45 58.88741 5.56749 414 ft 106 kts 113°
2026-04-17 09:46 58.88612 5.57650 334 ft 104 kts 109°
2026-04-17 09:46 58.88407 5.59017 205 ft 102 kts 111°
2026-04-17 09:46 58.88193 5.60383 56 ft 102 kts 110°
2026-04-17 09:46 58.88011 5.61540 16 ft 77 kts 111°
2026-04-17 09:47 58.87902 5.62252 19 ft 39 kts 104°
2026-04-17 09:47 58.87895 5.62485 18 ft 10 kts 336°
2026-04-17 09:47 58.87945 5.62508 18 ft 8 kts 19°
2026-04-17 09:47 58.87967 5.62521 18 ft 0 kts 18°
2026-04-17 09:48 58.88007 5.62548 18 ft 11 kts 19°
2026-04-17 09:48 58.88073 5.62492 17 ft 7 kts 316°
2026-04-17 09:49 58.88076 5.62423 18 ft 0 kts 226°